Weather History for KMRB - November, 2012

Change the Weather History Date:

Sunday, November 11, 2012

  Actual Average Record
Temperature  
Mean Temperature 52 °F 46 °F  
Max Temperature 67 °F 56 °F 78 °F (1931)
Min Temperature 36 °F 35 °F 19 °F (1954)
Degree Days  
Heating Degree Days 13 19  
Month to date heating degree days 238 193  
Since 1 July heating degree days 628 639  
Cooling Degree Days 0 0  
Month to date cooling degree days 0 0  
Year to date cooling degree days 1145 895  
Growing Degree Days 2 (Base 50)    
Moisture  
Dew Point 37 °F    
Average Humidity 65    
Maximum Humidity 92    
Minimum Humidity 37    
Precipitation  
Precipitation 0.00 in 0.09 in 1.06 in (1995)
Month to date precipitation T 1.10  
Year to date precipitation 28.63 33.96  
Sea Level Pressure  
Sea Level Pressure 30.39 in    
Wind  
Wind Speed 1 mph (SSE)    
Max Wind Speed 9 mph    
Max Gust Speed 17 mph    
Visibility 7 miles    
Events      
T = Trace of Precipitation, MM = Missing Value Source: NWS Daily Summary

Daily Weather History Graph

Daily Weather History Graph

Search for Another Location

Airport or City:

Trip Planner

Search our weather history database for the weather conditions in past years. The results will help you decide how hot, cold, wet, or windy it might be!

Date:

Astronomy

Nov. 11, 2012 Rise Set
Actual Time 6:51 AM EST 4:59 PM EST
Civil Twilight 6:23 AM EST 5:28 PM EST
Nautical Twilight 5:50 AM EST 6:00 PM EST
Astronomical Twilight 5:19 AM EST 6:32 PM EST
Moon 4:04 AM EST (11/11) 3:21 PM EST (11/11)
Length of Visible Light 11h 05m
Length of Day
10h 08m
Waning Crescent, 7% of the Moon is Illuminated
Nov 11
Waning Crescent
Nov 13
New
Nov 20
First Quarter
Nov 28
Full
Dec 6
Last Quarter

Hourly Weather History & Observations

Time (EST) Temp. Windchill Dew Point Humidity Pressure Visibility Wind Dir Wind Speed Gust Speed Precip Events Conditions
12:53 AM 39.9 °F - 35.1 °F 83% 30.35 in 7.0 mi Calm Calm - N/A   Clear
1:53 AM 39.0 °F - 34.0 °F 82% 30.34 in 7.0 mi Calm Calm - N/A   Clear
2:53 AM 37.9 °F - 33.1 °F 83% 30.35 in 7.0 mi Calm Calm - N/A   Clear
3:53 AM 37.0 °F - 32.0 °F 82% 30.37 in 8.0 mi Calm Calm - N/A   Clear
4:53 AM 37.9 °F - 33.1 °F 83% 30.38 in 5.0 mi Calm Calm - N/A   Haze
5:53 AM 39.0 °F - 35.1 °F 86% 30.39 in 4.0 mi Calm Calm - N/A   Clear
6:53 AM 37.9 °F - 35.1 °F 89% 30.42 in 3.0 mi Calm Calm - N/A   Clear
7:15 AM 37.4 °F - 33.8 °F 87% 30.43 in 3.0 mi Calm Calm - N/A   Clear
7:53 AM 39.9 °F - 37.0 °F 89% 30.45 in 2.5 mi Calm Calm - N/A   Clear
8:17 AM 44.6 °F - 37.4 °F 76% 30.44 in 3.0 mi Calm Calm - N/A   Haze
8:53 AM 46.9 °F - 37.9 °F 71% 30.46 in 3.0 mi Calm Calm - N/A   Haze
9:53 AM 51.1 °F - 39.0 °F 63% 30.45 in 4.0 mi Calm Calm - N/A   Haze
10:53 AM 55.0 °F - 39.9 °F 57% 30.44 in 6.0 mi Calm Calm - N/A   Haze
11:53 AM 57.9 °F - 39.9 °F 51% 30.41 in 8.0 mi Calm Calm - N/A   Clear
12:53 PM 62.1 °F - 39.9 °F 44% 30.38 in 10.0 mi Calm Calm - N/A   Clear
1:53 PM 64.9 °F - 39.9 °F 40% 30.36 in 10.0 mi Calm Calm - N/A   Clear
2:53 PM 66.9 °F - 39.0 °F 36% 30.35 in 10.0 mi SE 8.1 mph - N/A   Clear
3:53 PM 66.0 °F - 41.0 °F 40% 30.36 in 10.0 mi ESE 3.5 mph - N/A   Clear
4:53 PM 63.0 °F - 41.0 °F 45% 30.36 in 10.0 mi Calm Calm - N/A   Clear
5:53 PM 57.0 °F - 39.9 °F 53% 30.38 in 10.0 mi Calm Calm - N/A   Clear
6:53 PM 54.0 °F - 39.9 °F 59% 30.39 in 10.0 mi NNW 3.5 mph - N/A   Clear
7:53 PM 50.0 °F - 39.9 °F 68% 30.39 in 9.0 mi Calm Calm - N/A   Clear
8:53 PM 46.9 °F - 39.0 °F 74% 30.39 in 10.0 mi Calm Calm - N/A   Clear
9:53 PM 45.0 °F - 37.0 °F 74% 30.39 in 10.0 mi Calm Calm - N/A   Clear
10:53 PM 45.0 °F 43.5 °F 37.0 °F 74% 30.38 in 10.0 mi SSE 3.5 mph - N/A   Clear
11:53 PM 44.1 °F 42.5 °F 36.0 °F 73% 30.37 in 10.0 mi West 3.5 mph - N/A   Clear